{"data":{"norad_id":54092,"intl_designator":"2022-136AT","name":"STARLINK-5190","alt_names":[],"object_type":"PAYLOAD","status":"ACTIVE","operator":null,"country":"US","launch_date":"2022-10-20","launch_site_code":"AFETR","launch_vehicle":null,"mission":null,"orbit_class":"UNKNOWN","rcs_meters":null,"size_class":null,"mass_kg":null,"dimensions":null,"purposes":["comms"],"wikipedia_slug":null,"has_3d_model":false,"image_url":null,"decayed_at":null,"tle_current":{"epoch":"2026-08-22T02:22:00.831936Z","epoch_age_seconds":2629559,"freshness":"OLD","line1":"1 54092U 22136AT  26234.09862074  .04827599  12334-4  39658-3 0  9992","line2":"2 54092  53.1524  61.6871 0010214 281.3671  78.6228 16.38816961215445","mean_motion":16.38816961,"eccentricity":0.0010214,"inclination_deg":53.1524,"raan_deg":61.6871,"arg_perigee_deg":281.3671,"mean_anomaly_deg":78.6228,"bstar":0.00039658,"rev_number":21544,"period_min":87.868263159866,"perigee_km":162.26425012392,"apogee_km":175.63864240194,"semimajor_km":6547.0884462629,"source":"CELESTRAK","updated_at":"2026-08-22T09:00:36.145752Z"}}}